Vertical_Velocity
1 0 0 -0 1 -1 2 2 -2 -2 -1 1 0 1 -3 -2 -1 -2 -2 -1 1 -1
1 1 -2 1 -2 -1 0 0 3 2 1 -1 -3 -1 -2 -3 -3 -4 -2 -1 0 -0
-0 0 0 -0 1 -0 1 -1 -2 -0 0 1 1 1 1 -1 -1 -0 1 0 0 -0
-1 -1 -3 -2 0 1 1 4 1 1 -0 -2 -1 -1 -0 -0 -0 -0 1 0 0 0
1 0 -0 1 1 1 -0 0 -2 -0 1 2 2 2 -0 -0 -0 -1 -0 2 1 3
3 1 0 0 -0 1 1 0 0 -1 -3 -2 1 1 3 1 0 -1 -0 1 0 1
-2 -1 1 1 1 1 2 -2 -0 -2 -3 0 0 -2 -1 -0 -0 0 1 2 1 1
-2 -1 -1 -3 -2 -0 2 4 4 1 2 -1 -4 -1 2 2 2 2 1 -1 -2 -1
-0 -1 -1 0 -2 -3 -0 -0 0 2 2 2 0 1 1 -1 -3 -2 -3 0 4 6
-1 -0 0 -2 -1 1 -2 -1 -1 -0 0 -1 2 3 3 6 -3 -1 -0 -1 -1 -2
-0 -1 -0 -2 -2 0 -1 -2 -3 -3 1 -1 -1 1 3 5 -0 -1 0 0 1 -2
-1 -4 -3 -2 0 1 -2 1 1 -1 -1 -1 -3 7 4 5 2 -2 -3 2 -1 -4
-0 -1 -2 -2 -1 -0 -0 -2 -1 -1 1 -1 -5 1 3 5 2 -4 1 6 3 1
2 -1 1 -2 3 -1 2 1 2 -1 1 -1 1 1 0 5 -4 -4 -3 1 2 2
Height
1505 1502 1500 1498 1495 1493 1491 1489 1487 1484 1481 1479 1476 1473 1472 1471 1471 1471 1471 1470 1470 1470
1500 1498 1495 1493 1491 1488 1487 1486 1484 1481 1479 1477 1475 1473 1471 1470 1469 1469 1468 1467 1467 1467
1495 1493 1491 1488 1486 1484 1483 1481 1480 1478 1476 1474 1472 1471 1469 1468 1467 1466 1466 1465 1464 1463
1491 1489 1486 1484 1482 1480 1478 1477 1475 1474 1473 1471 1469 1467 1466 1465 1464 1464 1463 1462 1461 1459
1488 1485 1482 1480 1478 1476 1473 1472 1470 1469 1468 1467 1466 1464 1463 1462 1461 1460 1459 1458 1457 1455
1485 1482 1479 1477 1474 1471 1469 1467 1465 1463 1462 1462 1461 1460 1459 1458 1457 1456 1455 1454 1453 1452
1480 1477 1474 1471 1469 1466 1463 1461 1459 1457 1456 1455 1455 1454 1454 1453 1452 1451 1450 1449 1448 1447
1473 1470 1467 1464 1462 1459 1456 1454 1453 1451 1449 1448 1447 1447 1448 1447 1446 1445 1444 1443 1443 1442
1465 1462 1459 1457 1454 1451 1449 1447 1446 1444 1443 1441 1439 1439 1440 1440 1439 1439 1439 1438 1438 1437
1458 1455 1452 1449 1446 1443 1441 1440 1438 1437 1436 1434 1433 1433 1432 1432 1431 1431 1431 1431 1431 1431
1451 1447 1444 1442 1439 1437 1434 1432 1430 1429 1428 1427 1425 1425 1425 1425 1424 1423 1423 1424 1424 1423
1446 1442 1438 1435 1432 1430 1427 1425 1423 1421 1420 1419 1419 1418 1417 1417 1416 1415 1415 1415 1415 1415
1441 1437 1433 1430 1426 1423 1421 1418 1416 1415 1413 1412 1411 1411 1410 1409 1408 1407 1407 1407 1407 1407
1436 1431 1428 1424 1422 1419 1416 1414 1412 1409 1407 1406 1405 1405 1403 1402 1399 1399 1399 1399 1399 1401